Location: Amon Carter Post Office
(32.8281°N, 97.0484°W)
Time: 04:16:42
(UTC+00:00)

Meteor 2-15 Rocket - Visible Passes

Search period start: 05 July 2022 00:00
Search period end: 15 July 2022 00:00
Orbit: 940 x 955 km, 82.5° (Epoch: 04 July)

Date Brightness Start Highest point End Pass type
(mag) Time Alt. Az. Time Alt. Az. Time Alt. Az.
05 Jul 6.7 10:07:53 10° NNE 10:12:57 26° ENE 10:17:58 10° SE visible
06 Jul 5.8 10:24:18 10° N 10:30:07 43° E 10:35:53 10° SSE visible
07 Jul 4.8 10:41:03 10° N 10:47:11 71° E 10:53:16 10° SSE visible
08 Jul 7.2 09:16:02 10° NE 09:18:48 13° ENE 09:21:33 10° E visible
09 Jul 6.8 09:31:26 10° NNE 09:36:07 22° ENE 09:40:45 10° SE visible
10 Jul 6.0 09:47:43 10° NNE 09:53:19 36° ENE 09:58:52 10° SE visible
11 Jul 5.0 10:04:22 10° N 10:10:26 60° E 10:16:26 10° SSE visible
12 Jul 7.3 08:40:36 10° ENE 08:41:55 11° ENE 08:43:12 10° E visible
12 Jul 4.4 10:21:17 10° N 10:27:26 84° W 10:33:32 10° S visible
13 Jul 6.8 08:55:06 10° NNE 08:59:16 19° ENE 09:03:24 10° ESE visible
13 Jul 4.7 10:38:28 10° NNW 10:44:22 51° W 10:50:13 10° SSW visible
14 Jul 6.1 09:11:10 10° NNE 09:16:30 31° ENE 09:21:48 10° SE visible
14 Jul 5.2 10:55:57 10° NNW 11:01:12 31° W 11:06:26 10° SSW visible
